CAPE
0 0 0 0 0 0 0 0 0 0 0 0 0 1 0 0 0 0 0 0 0 0 0 8 72 56 5 2 0 0 0 0 0 0 0 0 0 0 0 0 0 0 0 0 0 0 0 0 0 0 0 0 0 0
0 0 0 0 0 0 0 0 0 0 0 0 1 0 0 0 0 0 0 0 1 0 0 13 41 47 49 0 0 0 0 0 0 0 0 0 0 0 0 0 0 0 0 0 0 0 0 0 0 0 0 0 0 0
0 0 0 0 0 0 0 0 0 0 0 0 0 0 0 0 0 0 0 0 4 25 15 11 19 21 3 0 0 2 0 2 0 0 0 0 0 0 0 0 0 0 0 0 0 0 0 0 0 0 0 0 0 0
0 0 0 0 0 0 0 0 1 0 0 1 0 0 0 0 0 0 0 0 0 0 13 1 0 0 0 0 0 0 0 0 0 0 0 0 0 0 0 0 0 0 0 0 0 0 0 0 0 0 0 0 0 0
0 0 0 0 0 0 0 0 0 0 0 0 0 0 0 0 0 0 0 0 0 0 0 0 0 0 0 0 0 0 0 0 0 0 0 0 0 0 0 0 0 0 0 0 0 0 0 0 0 16 3 0 0 0
0 0 0 0 0 0 0 1 0 0 1 0 0 0 0 0 0 0 0 0 0 0 0 5 0 0 0 0 0 0 0 0 0 0 0 0 0 0 0 0 0 0 0 0 0 0 0 0 35 52 69 0 0 0
0 0 0 0 0 0 0 1 0 0 0 0 0 1 0 0 0 0 0 0 0 0 4 10 1 0 0 0 0 0 0 0 0 0 0 0 0 0 0 0 0 0 11 16 0 0 0 8 91 138 25 0 0 0
0 0 0 0 0 0 0 0 0 0 0 0 0 0 0 0 0 0 0 0 0 0 1 14 9 0 0 0 0 0 0 0 0 0 0 0 0 0 0 0 0 0 0 1 0 0 0 0 139 181 27 0 0 0
0 0 0 0 0 0 0 0 0 0 0 0 0 0 0 0 0 0 0 0 0 0 23 24 9 0 0 1 7 0 0 0 0 0 0 0 0 0 0 0 0 0 0 0 0 0 0 12 85 231 136 5 0 0
0 0 0 0 0 0 0 0 0 0 0 0 0 0 0 2 0 0 0 0 0 0 5 16 17 2 0 0 13 0 0 0 0 0 3 0 0 0 0 0 0 0 0 0 0 0 0 11 65 194 131 73 17 28
0 0 0 0 0 0 0 0 0 1 0 0 0 3 0 0 0 0 0 1 0 0 0 5 8 21 9 11 14 5 0 0 0 0 0 0 3 0 0 36 14 54 8 0 0 0 0 1 73 106 136 179 102 28
0 0 0 0 0 0 0 0 0 0 0 0 0 0 0 0 0 0 0 0 0 0 0 4 22 21 30 17 6 1 1 0 0 0 1 0 18 15 0 0 0 0 0 0 0 0 0 0 0 0 17 10 0 0
0 0 0 0 0 0 0 0 0 0 0 0 0 0 0 0 0 0 0 0 0 0 0 13 12 8 16 30 7 0 1 0 0 0 0 2 29 0 0 1 0 0 0 0 1 0 0 0 0 0 0 0 0 0
0 0 0 0 0 0 0 0 0 0 0 0 3 0 0 0 0 0 0 0 2 6 4 12 29 28 4 11 5 2 0 0 1 0 0 59 53 19 15 0 0 0 0 0 0 0 0 0 0 0 0 0 0 0
0 0 0 0 0 0 0 0 0 0 1 0 3 1 0 0 0 17 10 8 15 24 27 42 27 15 15 7 4 0 0 0 0 0 3 73 71 11 0 0 0 0 0 0 0 0 0 0 0 0 0 0 0 0
0 0 0 0 0 0 0 0 0 1 0 1 0 0 0 19 40 33 29 11 17 37 25 26 29 25 2 0 6 2 0 0 0 10 58 66 0 0 0 0 0 0 0 0 0 0 0 0 0 0 0 0 0 0
0 0 0 0 0 0 0 1 0 0 1 0 0 0 0 1 27 28 38 31 17 15 21 14 1 0 14 0 0 0 0 0 6 41 80 8 0 0 0 0 0 0 0 0 0 0 0 0 0 0 0 0 2 8
0 0 0 0 0 0 0 1 1 2 0 0 0 0 1 1 12 34 50 41 11 10 15 10 19 0 16 10 8 6 14 85 79 116 99 54 0 0 0 0 0 0 0 0 0 0 0 0 0 0 0 9 12 13
1 1 0 0 0 1 1 0 0 11 0 0 0 0 0 0 0 4 27 60 53 70 24 4 10 0 0 11 44 53 52 101 84 45 106 7 0 0 0 0 0 0 0 0 0 0 0 0 0 1 6 10 7 10
0 0 0 1 0 0 1 8 0 2 0 0 0 0 0 0 8 17 30 63 44 25 0 1 0 0 14 40 55 3 40 45 0 0 0 69 0 0 0 0 0 0 0 0 0 0 0 1 2 6 0 0 0 0
1 2 2 0 0 1 0 10 1 0 0 0 0 0 0 0 0 1 5 11 50 24 9 0 0 0 0 3 13 5 3 26 21 0 3 62 7 0 0 0 0 0 0 0 1 0 0 0 1 6 0 0 0 0
1 0 0 0 1 1 1 0 1 19 2 0 0 0 0 0 0 1 10 3 0 0 0 2 5 14 26 39 28 10 1 0 0 1 0 0 74 3 0 0 0 0 0 0 0 0 0 1 0 0 0 0 0 0
0 0 0 0 1 0 0 0 3 17 0 14 28 10 2 0 0 11 0 0 0 0 0 0 1 6 28 45 65 45 6 4 0 0 0 0 0 78 40 2 2 0 0 0 0 0 0 0 0 0 0 0 0 0
1 4 2 11 1 1 0 15 15 1 2 3 11 0 2 13 36 16 0 1 0 0 2 9 19 13 35 89 88 68 76 10 0 0 0 92 244 172 85 19 6 1 0 1 6 15 0 0 0 0 0 0 0 0
0 2 0 5 7 3 2 3 7 10 0 0 0 0 1 7 6 0 0 0 0 0 21 29 79 47 45 98 160 95 106 46 16 0 5 135 264 210 74 51 35 12 12 0 8 2 0 0 0 0 0 0 0 0
1 1 0 3 5 0 2 0 0 0 0 0 1 2 3 17 4 0 33 45 7 196 135 129 100 53 53 69 147 278 332 323 219 188 334 308 260 216 88 135 123 60 19 5 2 0 0 0 0 0 0 0 0 0
0 6 0 0 1 10 11 0 2 4 16 7 5 1 3 8 1 33 55 72 42 40 81 94 95 36 2 10 0 0 144 271 173 272 267 215 118 69 17 25 5 11 0 9 1 0 0 0 0 0 0 0 0 0
0 4 1 17 5 13 7 14 16 2 5 5 21 14 10 19 18 7 5 0 0 0 27 168 103 56 73 93 55 272 218 207 189 233 172 138 112 33 9 20 8 0 0 3 0 0 0 0 0 0 0 0 0 0
0 0 4 17 18 27 8 1 0 5 0 12 15 8 6 12 21 51 26 44 34 40 109 144 20 412 308 264 244 107 19 41 140 198 141 136 154 184 135 74 61 17 0 0 0 0 0 0 0 0 0 0 0 0
0 0 10 18 18 2 11 1 0 38 6 9 0 6 3 1 2 0 2 28 56 77 107 17 17 108 113 133 95 54 12 0 0 73 122 169 213 68 2 0 0 0 0 0 0 0 0 0 0 0 0 0 0 0
1 24 21 19 1 0 0 0 0 0 5 0 0 0 0 1 2 0 0 1 7 6 17 79 32 47 53 46 26 39 42 24 27 68 85 83 32 0 3 7 2 0 0 0 0 0 0 0 0 0 0 0 0 0
1 0 0 0 0 0 0 0 0 0 0 4 3 0 1 0 0 0 0 4 7 16 54 73 99 40 63 40 21 15 17 3 2 33 50 48 10 3 5 0 2 0 0 0 0 0 0 0 0 0 0 0 0 0
6 0 0 1 0 0 4 6 7 6 0 0 0 0 0 0 4 3 10 19 6 19 23 33 11 6 17 14 1 6 8 9 20 22 28 16 0 0 0 0 0 0 0 0 0 0 0 0 0 0 0 0 0 0
CIN
0 0 0 0 0 0 0 0 0 0 -1 0 0 0 0 0 0 0 0 0 0 0 0 -83 -141 -128 -92 -84 0 0 0 0 0 0 0 0 0 0 0 0 0 0 0 0 0 0 0 0 0 0 0 0 0 0
0 0 0 0 -1 0 0 0 0 0 0 0 -1 0 0 0 0 0 0 0 -52 0 0 -126 -127 -153 -138 0 0 0 0 -53 0 0 0 0 0 0 0 0 0 0 0 0 0 0 0 0 0 0 0 0 0 0
0 0 0 0 0 0 0 0 0 0 0 0 0 0 0 0 0 0 0 0 -170 -91 -64 -56 -60 -86 -102 0 0 -81 0 -208 0 0 0 0 0 0 0 0 0 0 0 0 0 0 0 0 0 0 0 0 0 0
0 0 0 0 0 0 0 0 0 0 0 0 0 0 0 0 0 0 0 0 0 0 -59 -9 0 0 0 0 0 0 0 0 0 0 0 0 0 0 0 0 0 0 0 0 0 0 0 0 0 0 0 0 0 0
0 0 0 0 0 0 0 0 0 0 0 0 0 0 0 0 0 0 0 0 0 0 0 0 0 0 0 0 0 0 0 0 0 0 0 0 0 0 0 0 0 0 0 0 0 0 0 0 -19 -218 -165 0 0 0
0 0 0 0 0 0 0 0 0 0 0 0 0 0 0 0 0 0 0 0 0 0 -13 -28 0 0 0 0 0 0 0 0 0 0 0 0 0 0 0 0 0 0 0 0 0 0 0 0 -112 -153 -111 0 0 0
0 0 0 0 0 0 0 0 0 0 0 0 0 0 0 0 0 0 0 0 0 0 -12 -43 -10 0 0 0 0 0 0 0 0 0 0 0 0 0 0 0 0 0 -63 -65 -21 0 0 -122 -75 -127 -112 0 0 0
0 0 0 0 0 0 0 0 0 0 0 0 0 0 0 0 0 0 0 0 0 0 -19 -41 -23 0 0 0 0 0 0 0 0 0 0 0 0 0 0 0 0 0 0 -29 0 0 0 0 -106 -106 -162 0 0 0
0 0 0 0 0 0 -1 0 0 0 0 0 0 0 0 0 0 0 0 0 0 0 -31 -27 -18 0 0 -6 -25 0 0 0 0 0 0 0 0 0 0 0 0 0 0 0 0 0 -30 -45 -54 -82 -105 -143 0 0
0 0 0 0 0 0 0 -1 0 0 0 0 0 0 0 -20 0 0 0 0 0 0 -95 -60 -63 -9 0 -1 -8 0 0 0 0 0 -34 0 0 0 0 0 -7 0 0 0 0 0 0 -58 -53 -73 -80 -107 -131 -95
0 0 0 0 0 0 0 0 0 0 0 0 -3 -4 0 0 0 0 0 -8 0 0 0 -37 -26 -12 -43 -8 -8 -28 0 0 0 0 0 0 -18 0 0 -106 -77 -92 -100 0 0 0 0 -9 -46 -46 -52 -61 -68 -72
0 0 0 0 0 0 0 0 0 0 0 0 0 0 0 0 0 -2 0 0 0 0 0 -20 -21 -20 -15 -37 -22 -15 -9 0 0 0 -2 0 -88 -117 0 0 0 0 0 0 -1 0 0 0 0 -6 -79 -93 0 0
0 0 0 0 0 0 0 0 0 0 0 0 0 0 0 0 0 0 0 0 0 0 0 -25 -12 -21 -19 -28 -28 0 -4 0 0 0 0 -60 -106 0 0 -117 0 0 0 0 -26 0 0 0 0 0 0 0 0 0
0 0 0 0 0 0 0 0 0 0 0 0 -19 0 0 0 0 0 0 0 -31 -22 -24 -16 -6 -2 -21 -12 -18 -5 -1 0 -2 0 0 -80 -107 -141 -162 0 0 0 0 0 0 0 0 0 0 0 0 0 0 0
0 0 0 0 0 0 0 0 0 0 0 0 -1 0 0 0 -9 -23 -21 -25 -22 -35 -31 -20 -12 -14 -16 -14 -17 0 -1 0 0 0 -39 -86 -111 -163 0 0 0 0 0 0 0 0 0 0 0 0 0 0 0 0
0 0 0 0 0 0 0 0 0 0 0 0 0 -1 -1 -23 -17 -20 -21 -22 -31 -22 -50 -23 -17 -7 -7 0 -11 -6 0 0 0 -52 -69 -120 -3 0 0 0 0 0 0 0 0 0 0 0 0 0 0 0 0 0
0 0 0 0 0 0 0 0 0 0 -67 -4 0 0 0 -24 -36 -25 -34 -29 -37 -14 -9 -22 -6 -3 -25 0 0 0 0 0 -57 -59 -101 -104 0 0 0 0 0 0 0 0 0 0 0 0 0 0 0 0 -36 -45
0 -1 0 0 0 0 0 0 0 -10 0 0 0 0 -56 -36 -45 -23 -31 -32 -24 -25 -38 -16 -30 -3 -7 -5 -4 -9 -56 -61 -84 -77 -65 -76 -8 0 0 0 0 0 0 0 0 0 0 0 0 0 0 -50 -67 -49
0 0 0 0 0 -6 -11 0 0 -3 0 0 0 0 0 0 -12 -42 -27 -27 -40 -42 -34 -29 -8 0 0 -41 -26 -37 -25 -62 -85 -30 -52 -109 0 0 0 0 0 0 0 0 0 0 0 0 0 -23 -47 -50 -40 -43
0 0 0 -15 0 0 -2 -3 0 -8 0 0 0 0 0 0 -38 -31 -24 -24 -23 -26 -1 -6 0 0 -29 -22 -55 -13 -66 -101 0 0 0 -89 0 0 0 0 0 0 0 0 0 0 0 -41 -44 -57 0 -16 0 0
0 0 0 0 0 0 0 -5 -2 0 0 0 0 0 0 0 0 -33 -28 -32 -11 -14 -27 0 0 0 0 -21 -53 -84 -95 -92 -81 0 -36 -81 -145 0 0 0 0 0 0 0 -60 0 0 -1 -8 -42 0 0 0 0
0 0 0 0 0 -6 0 0 -3 -7 -5 0 0 0 0 0 0 -4 -48 -18 0 0 -19 -65 -51 -31 -22 -36 -42 -100 -83 -19 0 -71 0 0 -138 -23 0 0 0 0 0 0 0 0 -29 -59 0 0 0 0 0 0
0 0 0 0 -7 -10 0 0 -7 -8 0 -5 -11 -30 -11 0 0 -53 0 0 0 0 0 0 -30 -40 -39 -61 -83 -89 -103 -80 0 0 0 0 0 -159 -112 -61 -102 0 0 0 0 0 0 0 0 0 0 0 0 0
0 -9 -13 -15 -15 -25 -2 -2 -6 -2 -9 -3 -20 0 -17 -13 -23 -14 -9 -17 0 0 -34 -32 -49 -34 -69 -47 -59 -75 -57 -98 0 0 0 -115 -77 -62 -105 -95 -77 -52 0 -56 -57 -51 0 0 0 0 0 0 0 0
-1 -1 -3 -9 -23 -17 -8 -1 -1 -2 0 0 0 0 -36 -26 -12 -1 0 0 -3 -2 -41 -35 -42 -43 -45 -30 -39 -60 -107 -99 -91 0 -41 -80 -31 -41 -80 -89 -81 -80 -66 -1 -39 -35 0 0 0 0 0 0 0 0
-11 -10 0 -17 -14 -5 -5 0 0 0 0 0 -7 -5 -7 -8 -3 0 -16 -20 -26 -16 -32 -27 -34 -47 -49 -60 -37 -46 -55 -58 -84 -39 -29 -39 -39 -33 -27 -24 -21 -22 -35 -33 -34 0 0 0 0 0 0 0 0 0
0 -1 -9 0 -8 -7 -3 0 -8 -11 -2 -16 -43 -14 -8 -2 -8 -11 -39 -38 -28 -32 -36 -33 -35 -53 -40 -56 -8 -3 -106 -65 -62 -45 -44 -48 -51 -66 -72 -39 -17 -31 0 -45 -22 0 0 0 0 0 0 0 0 0
-6 -4 0 -3 -9 -8 -1 -1 -2 -10 -13 -34 -18 -13 -11 -3 -18 -40 -54 -5 0 0 -80 -40 -45 -36 -49 -48 -78 -46 -49 -69 -54 -54 -57 -61 -71 -83 -99 -80 -76 0 0 -41 0 0 0 0 0 0 0 0 0 0
0 0 -20 -9 -3 -1 -4 -4 0 -14 0 -41 -9 -10 -13 -23 -31 -24 -37 -40 -72 -48 -31 -28 -85 -44 -46 -72 -66 -86 -87 -62 -38 -26 -22 -31 -35 -25 -45 -54 -60 -69 0 0 0 0 0 0 0 0 0 0 0 0
0 0 -13 -4 -2 -2 -6 -9 -6 -13 -9 -27 -18 -20 -15 -19 -24 0 -33 -43 -31 -23 -33 -64 -76 -42 -50 -54 -63 -65 -103 -18 0 -52 -29 -29 -32 -36 -16 0 -28 0 0 0 0 0 0 0 0 0 0 0 0 0
-8 -6 -2 -6 -4 0 0 0 0 -10 -28 -7 0 0 0 -46 -44 0 0 -12 -35 -38 -49 -21 -37 -82 -97 -108 -76 -51 -41 -115 -72 -56 -48 -25 -32 0 -21 -55 -78 0 0 0 0 0 0 0 0 0 0 0 0 0
-7 -6 0 0 0 0 0 0 0 0 -2 -28 -24 0 -35 0 0 0 0 -44 -35 -36 -40 -39 -23 -18 -27 -47 -48 -43 -38 -56 -56 -36 -28 -38 -47 -44 -44 -4 -56 0 0 0 0 0 0 0 0 0 0 0 0 0
-11 -4 0 -2 0 0 -7 -49 -22 -17 0 0 0 0 0 0 -40 -34 -26 -31 -26 -33 -47 -39 -43 -50 -41 -50 -10 -38 -47 -45 -42 -47 -42 -56 0 0 0 0 0 0 0 0 0 0 0 0 0 0 0 0 0 0
Wind_Speed
15 18 19 19 22 22 22 22 22 21 22 22 22 23 23 19 17 14 15 16 16 20 21 16 18 18 18 17 18 16 15 16 17 18 16 16 16 16 16 17 14 12 15 16 18 22 25 19 20 25 20 18 21 25
14 15 16 16 18 20 21 20 19 19 21 21 23 22 20 18 18 17 16 17 19 21 23 23 24 25 25 21 21 17 13 14 16 16 16 15 15 14 14 16 16 17 15 17 18 19 17 21 18 15 14 19 21 23
14 14 15 15 18 19 21 20 19 17 17 19 22 21 19 19 18 16 15 13 14 16 19 18 18 18 18 19 20 22 17 15 15 14 13 14 13 13 15 15 16 17 14 16 15 17 16 16 16 16 16 19 21 22
13 13 13 14 17 17 19 19 18 16 14 19 22 21 20 20 20 18 17 16 15 17 19 22 17 20 20 19 15 13 10 12 14 16 12 12 13 14 14 13 15 15 16 17 19 16 16 16 14 15 18 17 16 16
12 12 13 13 16 17 17 18 17 16 13 21 21 21 20 19 19 19 19 16 15 17 20 21 20 19 20 20 19 14 12 13 15 16 14 10 11 11 14 14 15 13 14 16 18 13 16 16 11 9 11 14 12 14
7 8 10 12 15 17 17 18 17 16 14 22 21 20 19 19 18 15 17 19 16 16 18 19 19 18 15 19 22 18 15 15 14 12 12 12 11 10 13 14 17 14 13 13 15 13 14 14 10 7 11 11 10 12
4 5 8 13 14 16 18 19 18 16 19 21 21 20 20 19 18 17 18 18 18 17 18 18 18 17 14 14 16 14 14 14 11 11 10 10 9 11 11 12 10 15 15 14 11 13 20 14 11 6 10 8 10 11
3 5 5 11 13 15 18 20 18 18 20 21 21 21 21 21 20 19 17 17 16 17 17 19 19 13 15 15 11 13 12 13 11 11 11 8 11 11 9 9 9 11 14 20 14 8 13 13 10 6 8 9 9 9
2 4 5 9 12 13 19 20 19 19 20 20 20 20 17 16 17 17 17 18 17 16 18 19 11 15 13 15 15 11 12 11 11 9 8 10 8 7 6 6 10 11 15 17 18 15 14 14 10 7 6 6 5 7
1 4 6 7 10 13 18 20 19 19 19 18 14 13 15 15 16 15 15 15 15 17 18 20 17 10 7 7 9 10 14 13 14 10 12 8 5 10 11 10 12 13 11 12 15 15 16 13 9 7 5 5 4 4
1 5 7 8 11 12 18 19 18 15 13 10 12 14 16 16 15 15 16 16 16 17 19 22 18 14 13 7 9 12 12 14 13 10 12 12 10 9 11 11 12 9 9 6 12 15 16 15 11 9 6 6 9 7
1 3 6 7 10 11 19 18 16 12 9 11 15 16 15 16 16 17 18 18 17 17 18 6 7 6 10 10 11 12 12 13 11 12 12 12 10 12 10 10 12 11 15 14 13 15 15 14 13 11 10 9 8 8
1 2 3 6 10 12 19 17 16 16 17 10 13 14 15 16 18 19 19 18 17 17 18 9 6 6 10 12 12 11 10 9 13 11 10 9 11 11 10 10 11 14 13 12 13 14 14 13 13 14 12 10 9 9
1 2 2 8 8 17 19 17 15 14 11 8 9 16 17 18 20 19 19 17 19 19 21 8 5 8 9 10 10 10 9 12 11 9 8 10 11 12 11 12 14 13 14 14 16 15 14 14 13 13 12 12 13 10
1 1 3 9 13 20 17 16 13 12 11 8 14 18 21 21 20 20 20 19 17 15 13 9 11 9 12 9 10 10 10 10 10 9 11 12 12 12 12 13 14 16 16 16 15 16 17 16 15 13 12 12 11 11
1 3 7 10 21 17 13 11 11 13 13 11 19 20 22 22 21 21 21 20 16 16 14 10 12 8 6 7 8 9 9 9 12 10 11 12 11 12 13 13 14 16 14 15 16 15 15 16 15 15 14 13 12 12
2 6 8 11 14 9 10 13 11 9 11 18 22 24 25 24 23 23 20 20 17 15 20 13 7 7 13 8 6 7 7 17 15 9 10 11 11 11 12 13 13 15 16 15 15 14 15 14 14 13 11 10 10 9
8 7 11 13 7 8 13 14 11 14 21 24 25 23 21 22 22 22 20 20 17 15 15 12 9 6 6 7 8 10 13 11 8 7 7 11 12 12 12 12 13 14 14 15 15 13 11 12 11 10 8 6 6 7
8 14 19 8 14 14 14 15 17 14 25 26 29 30 27 26 25 24 22 18 14 12 11 13 9 1 11 6 12 16 16 9 9 3 17 16 12 11 11 11 13 14 14 14 14 13 11 9 7 5 5 4 5 7
20 19 14 15 15 17 18 16 18 20 21 22 25 29 29 29 25 24 22 13 8 12 12 10 3 8 11 14 10 9 12 11 11 9 23 9 7 9 10 10 13 13 12 11 9 8 6 4 4 4 4 2 4 8
16 15 15 16 18 19 19 16 10 21 21 24 25 23 25 26 29 29 29 16 11 11 7 1 2 4 1 10 5 7 8 8 5 3 4 6 12 11 12 11 14 13 10 9 7 5 3 3 4 6 6 12 12 12
15 15 14 17 19 19 21 21 18 20 20 22 22 22 24 25 26 28 22 19 13 3 2 4 3 3 10 7 5 8 7 3 3 4 2 2 8 18 15 17 15 13 10 9 7 5 5 5 9 10 12 12 15 14
13 15 14 15 18 20 22 19 21 20 21 20 20 20 21 21 23 17 19 13 2 8 8 8 9 5 4 3 6 4 2 5 5 10 28 28 26 22 18 16 14 13 11 10 8 6 9 11 11 11 12 12 10 8
14 15 16 19 20 19 20 20 22 22 21 21 20 19 19 19 17 17 20 20 9 2 2 8 8 6 2 2 9 11 10 4 7 12 24 25 28 24 18 16 16 15 11 9 7 8 9 9 9 9 10 9 12 13
15 17 18 20 20 20 20 21 23 23 24 23 22 22 20 18 20 20 22 24 13 7 9 11 8 14 15 13 12 9 1 5 14 22 25 22 21 13 14 12 12 14 10 7 8 6 7 8 8 7 8 10 8 7
19 19 17 18 20 18 21 21 22 25 24 23 23 21 20 19 20 20 17 17 14 18 11 9 9 8 5 3 5 9 15 7 24 26 27 23 20 18 14 9 6 7 7 9 8 9 9 8 7 7 7 6 6 6
19 19 21 23 21 21 20 23 23 21 22 23 21 20 18 19 19 18 16 16 15 17 14 12 8 8 11 16 13 12 11 18 22 23 24 24 19 17 17 9 7 8 11 10 9 9 8 8 8 7 5 5 5 5
20 20 21 21 24 24 26 23 22 22 22 21 20 20 19 19 19 18 16 17 20 19 19 19 8 12 11 16 21 21 5 13 11 14 19 24 21 16 16 11 10 12 9 11 11 10 10 9 8 10 12 11 10 9
22 21 20 23 24 22 24 25 25 23 21 19 18 24 21 20 19 18 18 21 18 18 20 11 12 13 11 13 8 11 10 8 5 5 10 20 23 20 17 12 13 12 12 9 8 7 7 7 7 8 10 12 12 10
23 22 21 20 21 24 23 24 25 24 25 27 25 24 24 25 26 24 11 10 10 13 12 17 13 12 11 10 9 19 18 15 15 15 18 20 18 10 8 11 12 11 11 8 6 4 5 6 7 7 7 8 9 10
20 19 21 20 23 24 26 27 28 28 28 27 28 28 27 25 23 22 22 15 18 17 14 19 16 13 9 19 18 17 18 21 20 19 20 12 11 10 10 10 9 8 9 6 5 5 3 1 1 2 2 3 3 5
22 23 22 24 25 25 25 26 26 27 29 28 27 27 26 24 24 24 22 15 19 19 16 11 10 18 19 20 19 20 19 17 18 18 16 11 10 10 10 12 13 16 18 15 14 5 2 6 5 3 2 2 2 4
23 23 24 25 22 21 21 22 22 22 25 28 28 28 28 25 22 23 23 10 16 17 20 20 20 19 20 20 20 21 19 17 15 14 11 12 11 11 12 13 15 17 19 22 13 6 3 1 4 5 2 1 3 10
Wind_Direction
341 346 343 345 345 348 349 355 359 3 2 5 359 330 317 292 292 278 193 272 263 254 238 265 261 257 262 273 263 289 289 303 318 305 303 306 313 317 320 325 325 320 324 317 319 314 309 326 325 317 325 331 330 329
346 345 346 347 348 344 342 350 358 2 1 1 340 326 299 291 295 290 230 263 263 195 226 232 233 227 228 260 250 278 296 313 311 301 299 311 319 331 335 326 337 328 332 326 324 323 334 332 337 347 343 336 334 334
342 350 349 346 344 344 338 342 350 357 5 355 309 292 281 291 289 290 240 245 256 248 214 223 247 260 274 258 255 238 262 285 303 326 334 331 335 345 335 338 340 340 352 341 337 335 337 342 346 346 345 338 338 337
335 341 348 349 342 344 341 343 350 356 6 331 285 279 276 282 290 283 259 264 261 244 218 209 248 229 234 239 257 275 302 312 317 319 345 350 344 355 347 352 347 347 345 341 337 341 343 341 340 343 341 346 347 350
333 339 336 342 340 342 344 341 348 354 6 296 277 273 264 267 268 270 258 248 261 236 219 218 239 238 248 248 245 272 292 301 331 338 348 4 349 3 358 358 352 4 354 345 339 346 343 345 348 0 357 351 354 356
346 348 351 342 337 337 340 333 340 349 351 279 271 267 257 263 258 272 247 240 283 260 230 215 238 247 261 245 234 255 286 304 330 14 32 38 34 30 11 360 349 6 16 13 358 354 1 1 7 16 1 2 10 3
29 17 358 335 336 339 331 324 329 339 311 271 266 264 252 263 264 254 249 242 259 254 235 242 249 260 287 263 258 273 287 321 9 28 44 44 47 21 22 11 36 25 23 16 18 359 345 353 357 13 8 22 16 10
14 31 21 342 340 340 321 313 316 318 288 272 264 258 254 253 259 248 258 252 270 257 260 242 211 272 245 249 285 283 312 339 45 62 44 57 45 27 33 39 42 28 14 5 14 14 1 3 9 19 18 16 21 18
51 18 21 347 337 348 307 300 303 297 279 268 264 262 275 280 268 264 277 271 272 267 258 245 74 112 267 270 294 319 343 23 33 70 93 59 55 45 51 48 22 33 19 14 17 24 27 21 27 36 28 22 34 27
15 356 353 351 340 332 302 288 287 281 270 271 292 293 283 281 281 305 286 271 264 259 255 243 257 312 25 357 355 351 334 4 14 57 46 60 71 38 49 58 20 15 34 33 23 20 23 28 39 60 86 97 87 104
10 332 336 330 326 329 293 278 277 289 300 324 295 289 278 272 284 287 264 262 257 263 252 238 253 274 286 54 14 340 2 1 21 65 47 50 59 86 78 66 48 59 54 51 43 48 46 40 63 75 81 133 148 148
24 349 324 323 314 319 276 272 276 299 342 305 283 279 279 278 278 269 257 261 264 268 257 275 291 48 324 334 342 345 6 11 41 49 47 56 73 90 87 81 61 61 35 61 64 59 56 66 74 83 79 72 103 112
12 359 340 316 303 296 262 270 270 269 269 317 291 285 282 274 266 259 256 262 266 267 253 288 337 22 328 334 345 360 18 48 13 36 56 77 83 102 98 75 64 43 72 73 66 66 73 73 78 79 87 72 94 85
314 78 69 297 303 263 259 267 269 274 296 352 317 279 272 270 261 260 254 260 257 264 244 302 342 345 358 360 7 50 61 3 17 57 79 82 98 94 85 69 52 69 61 79 73 68 70 88 95 98 101 101 87 123
354 359 351 288 269 244 260 264 269 278 293 338 291 270 260 253 256 261 263 268 276 283 278 285 295 328 316 37 47 48 48 31 26 63 68 97 84 79 63 64 70 59 80 81 77 65 62 73 86 93 103 117 121 130
326 333 300 277 237 248 261 271 276 279 289 314 269 262 253 254 256 254 259 265 277 266 274 291 304 11 73 65 64 108 80 61 13 26 86 91 83 62 59 69 69 63 87 83 77 82 87 90 88 94 103 114 118 130
291 295 290 247 239 257 262 269 278 299 308 272 253 247 243 248 247 253 263 259 270 270 259 286 334 47 321 81 97 66 140 218 328 27 75 79 70 55 58 64 73 83 85 83 83 84 95 97 104 108 112 119 129 145
274 279 238 230 237 255 260 266 288 291 265 252 244 244 248 252 255 253 263 262 268 277 281 296 335 357 97 90 28 12 332 5 354 1 54 42 46 50 64 72 82 92 94 94 91 94 108 104 107 119 133 144 151 174
263 234 220 226 242 254 265 266 261 295 250 245 242 238 243 247 242 250 257 269 284 297 305 306 331 97 174 349 340 343 264 5 27 328 284 321 28 55 89 79 100 98 99 102 93 101 111 113 133 171 189 167 174 197
219 224 229 238 246 251 253 270 261 266 252 250 247 238 243 242 250 254 264 294 309 305 306 308 330 330 341 325 329 348 342 342 349 11 258 172 85 102 127 105 126 117 111 114 113 118 108 119 151 182 145 115 151 206
223 234 235 239 244 249 255 271 311 257 253 248 245 248 249 248 245 243 246 286 298 306 312 313 182 188 184 326 325 325 337 359 350 20 0 137 153 149 149 127 149 145 135 137 138 165 158 179 187 189 109 87 76 80
236 231 237 239 247 253 252 250 264 257 256 247 251 251 254 253 250 250 272 283 297 288 197 189 215 318 330 332 331 325 332 343 1 331 194 51 132 168 158 165 161 169 163 175 175 170 181 159 107 89 76 77 76 91
240 240 250 255 254 251 248 257 252 251 246 248 251 251 255 257 256 275 280 301 175 181 192 207 210 216 217 224 328 321 357 7 9 339 244 191 192 191 182 178 171 174 178 184 168 150 105 87 90 88 76 77 85 93
251 245 254 251 251 259 259 255 249 247 252 245 247 254 259 262 269 280 284 294 175 34 154 181 179 178 143 90 157 165 164 138 132 148 176 193 214 195 181 183 188 190 183 186 160 87 103 103 108 95 79 92 66 67
254 251 260 255 253 259 259 252 243 242 241 243 247 253 258 268 271 276 285 288 339 120 158 167 157 174 174 168 171 165 85 147 170 185 189 181 183 159 163 163 177 193 187 163 152 92 116 123 116 100 86 71 88 82
256 257 264 262 257 260 250 247 241 236 239 243 245 254 259 263 264 266 289 313 353 335 15 105 123 124 112 109 133 151 169 333 200 196 198 181 183 179 171 147 129 151 124 130 100 89 106 118 115 101 89 86 80 76
264 262 254 247 251 245 252 245 246 246 238 239 247 247 260 263 266 280 299 327 344 323 347 30 108 129 146 194 204 157 149 166 176 183 186 185 180 172 175 137 98 102 111 120 103 105 94 98 102 79 82 71 62 57
257 254 254 255 244 244 236 242 241 241 240 243 245 247 257 260 262 278 319 346 327 303 245 239 163 158 153 172 205 232 71 135 129 137 164 200 189 165 161 146 154 156 124 116 119 102 89 84 75 58 45 42 35 34
252 249 256 244 238 245 240 239 236 233 242 242 263 248 261 267 277 297 318 304 309 321 291 158 336 12 15 296 58 108 56 106 39 66 118 161 206 209 203 169 171 153 148 129 119 107 90 82 81 62 46 38 34 35
244 242 243 249 244 237 243 238 229 226 231 239 249 254 259 258 244 270 359 8 36 175 166 284 59 48 59 66 45 179 175 122 130 135 155 174 180 158 95 140 137 148 160 155 154 108 50 48 47 41 42 42 38 36
241 244 241 249 243 246 245 250 251 248 244 239 239 236 232 240 254 260 236 182 189 269 308 245 264 318 274 137 128 114 126 137 139 170 161 131 113 103 67 67 51 91 62 106 174 184 185 184 76 31 30 18 9 11
236 237 244 247 250 251 250 246 243 240 237 238 238 239 241 246 238 254 231 172 192 192 146 77 58 178 205 198 175 174 185 141 146 151 137 95 76 65 53 37 18 358 358 14 17 66 138 208 217 213 235 265 325 6
236 242 251 258 255 247 240 237 241 245 238 234 233 229 225 215 204 227 279 128 153 160 166 168 175 207 211 171 173 160 162 151 135 139 124 98 83 51 36 22 14 8 360 351 354 342 318 164 174 200 217 307 16 24